Weather in Obsharovka

Russia / Samara Oblast     53°07′08″N   48°51′52″E
temp.,
°C
wind,
m/s
gust,
m/s
humid.,
%
clouds,
%
prec.,
mm/h
press.,
hPa
HPBL,
m
25 february, thu
thu2501:00−26wnw239068 0.0 103721
04:00−24w228882 0.0 103620
07:00−24s228797 0.0 103521
10:00−21ssw468898 0.0 1032231
13:00−18s61089100 0.0 1030351
16:00−16s81495100 1.1 1025542
19:00−15s71494100 1.6 1022678
22:00−13s61294100 3.1 1019632
26 february, fri
fri2601:00−11s51095100 1.2 1016490
04:00−10s5895100 1.9 1015346
07:00−11sse359698 0.4 1013118
10:00−9s479495 0.6 1015294
13:00−6s469497 0.3 1013301
16:00−4s589598 0.6 1011332
19:00−3s61197100 1.0 1009284
22:00+2ssw713100100 2.6 1004332
27 february, sat
sat2701:00+2sw714100100 3.5 1000406
04:00+2w51497100 3.6 1000486
07:00+2wsw51386100 0.0 1000523
10:00+1wsw5118997 0.1 1000491
13:00+1wsw51010095 0.1 1000445
16:00+1wsw5109596 0.2 1000419
19:000sw4109082 0.1 999226
22:00−1wsw5119090 0.1 999324
28 february, sun
sun2801:00−1wsw51096100 0.3 999397
04:00−8nnw61091100 0.7 1001427
07:00−12nw5119086 0.1 1004380
10:00−13nnw6108876 0.1 1006497
13:00−11nnw598693 0.0 1008621
16:00−11nnw598697 0.0 1010644
19:00−14nw479199 0.0 1012145
22:00−16nw369293 0.0 1015135
1 march, mon
mon101:00−16nw469265 0.0 1016133
04:00−17nw489232 0.0 1018166
07:00−18nw48920 0.0 1019170
10:00−16nnw589022 0.0 1021421
13:00−14nnw578893 0.0 1022518
16:00−12nnw478897 0.0 1023541
19:00−16nnw349054 0.0 102473
22:00−17nw239227 0.0 102520